Regional Weather Roundup
Issued by NWS

Home | Current Version | Previous Version | Graphics & Text | Print | Product List | Glossary On
Versions: 1 2 3 4 5 6 7 8 9 10 11 12 13 14 15 16 17 18 19 20 21 22 23 24 25 26 27 28 29 30 31 32 33 34 35 36 37 38 39 40 41 42 43 44 45 46 47 48 49 50
000
ASUS45 KBOU 042007
RWRCO

WEATHER ROUNDUP FOR COLORADO
NATIONAL WEATHER SERVICE DENVER/BOULDER CO
200 PM MDT TUE AUG 04 2015

NOTE: "FAIR" INDICATES FEW OR NO CLOUDS BELOW 12000 FEET WITH NO
SIGNIFICANT WEATHER AND/OR OBSTRUCTIONS TO VISIBILITY.

COZ001>005-013-030-031-042100-
...NORTHWEST COLORADO...

CITY           SKY/WX    TMP DP  RH WIND       PRES   REMARKS
CRAIG          NOT AVBL
HAYDEN         MOSUNNY   75  43  31 W22G31    30.23F
MEEKER         SUNNY     83  33  16 W13G24    30.23F
MOUNT WERNER   NOT AVBL
STEAMBOAT SPGS   N/A    N/A N/A N/A MISG        N/A
WALDEN         PTSUNNY   70  41  35 W17G23    30.31R
$$

COZ006>008-011-042100-
...WEST CENTRAL VALLEYS...

CITY           SKY/WX    TMP DP  RH WIND       PRES   REMARKS
GRAND JUNCTION SUNNY     87  46  24 VRB6      30.13F
MONTROSE       MOSUNNY   83  46  27 N8        30.21F
EAGLE          MOSUNNY   79  37  22 W15G26    30.25R
RIFLE          MOSUNNY   82  43  25 CALM      30.16F
DELTA          MOSUNNY   90  43  19 S6        30.15F
NUCLA          MOSUNNY   82  45  26 NW3       30.25F
$$

COZ017>023-064>068-042100-
...SOUTHWEST COLORADO...

CITY           SKY/WX    TMP DP  RH WIND       PRES   REMARKS
DURANGO        PTSUNNY   86  35  16 W17G28    30.25S
CORTEZ         SUNNY     87  43  21 VRB3      30.21F
PAGOSA SPRINGS MOSUNNY   79  32  18 W14       30.32F
TELLURIDE      MOSUNNY   71  36  27 W7G20     30.48S
WOLF CREEK PAS NOT AVBL
$$

COZ009-010-012-014-032>034-037-058>063-042100-
...CENTRAL COLORADO...

CITY           SKY/WX    TMP DP  RH WIND       PRES   REMARKS
ASPEN          PTSUNNY   73  43  33 N13G18    30.33S
BUENA VISTA    CLOUDY    76  33  21 SW17G28   30.30S
COPPER MTN     SUNNY     59  30  33 W31G48    30.60F
BERTHOUD PASS  FAIR      50  41  71 NW32G49   30.58R
COTTONWOOD PAS CLOUDY    64  32  29 CALM      30.46R
GUNNISON       SUNNY     75  36  23 W17G26    30.35S
KREMMLING      SUNNY     79  28  15 W20G30    30.29R
LEADVILLE      MOSUNNY   64  30  27 W17G28    30.46R
MONARCH PASS   MOSUNNY   54  36  50 W36G44    30.71F
SALIDA         MOSUNNY   81  35  19 W15G22    30.34S
SUNLIGHT       CLOUDY    59  43  55 SW3       30.59R
WILKERSON PASS NOT AVBL
$$

COZ069>075-042100-
...SAN LUIS VALLEY/SANGRE DE CRISTO MOUNTAINS...

CITY           SKY/WX    TMP DP  RH WIND       PRES   REMARKS
ALAMOSA        MOSUNNY   79  37  22 N10       30.29F
LA VETA PASS   PTSUNNY   66  34  30 MISG      30.49F
SAGUACHE       MOSUNNY   79  36  21 NW22G31   30.32F
$$

COZ035-036-038>040-042100-
...NORTHERN COLORADO FRONT RANGE...

CITY           SKY/WX    TMP DP  RH WIND       PRES   REMARKS
DENVER INTL AP MOSUNNY   89  38  16 NW13G18   30.05F
DMNS CITY PARK   N/A     89  41  18 S2G9      30.04S
AURORA         MOSUNNY   84  42  23 SW7       30.08S
FRONT RANGE AP MOSUNNY   88  36  15 W10       30.07S
ERIE MUNI ARPT SUNNY     90  29  11 W29G36    30.02S
BOULDER MUN AP SUNNY     88  34  14 W16G24    30.03S
CENTENNIAL     MOSUNNY   85  39  19 E6        30.08F
BROOMFIELD     MOSUNNY   90  36  14 SW10G29   30.07S
FORT COLLINS   MOSUNNY   88  46  23 W8        30.01S
LONGMONT       MOSUNNY   91  40  16 CALM      30.03S
$$

COZ041-046-047-076>085-087-088-042100-
...PIKES PEAK/PALMER DIVIDE AND SOUTHERN FOOTHILLS...

CITY           SKY/WX    TMP DP  RH WIND       PRES   REMARKS
COLO. SPRINGS  MOSUNNY   87  38  17 VRB3      30.11F
A. F. ACADEMY  SUNNY     84  36  17 W12G21    30.12F
ELLICOTT       SUNNY    N/A N/A N/A CALM      30.11S
FALCON         MOSUNNY   82  43  25 E6        30.18S
FORT CARSON    MOSUNNY   87  42  20 VRB3      30.07F
LIMON          SUNNY     86  44  23 VRB7      30.07F
MONUMENT HILL  SUNNY     77  37  24 CALM      30.19S
TRINIDAD       SUNNY     91  41  17 NW14G23   30.09F
$$

COZ042>045-048>051-090-091-042100-
...NORTHEAST COLORADO...

CITY           SKY/WX    TMP DP  RH WIND       PRES   REMARKS
GREELEY ARPT   MOSUNNY   82  48  30 NE10      30.03R
AKRON          CLOUDY    82  46  28 N20G26    30.03S
BURLINGTON     MOSUNNY   87  55  33 N13       29.99R
WRAY           CLOUDY    76  62  61 NE13G24   29.98R
STERLING       CLOUDY    73  59  60 NE9G20    30.00R
HOLYOKE        CLOUDY    73  61  64 NE10      30.01S
FORT MORGAN    CLOUDY    83  45  25 N9        30.02S
$$

COZ086-089-092>099-042100-
...SOUTHEAST COLORADO...

CITY           SKY/WX    TMP DP  RH WIND       PRES   REMARKS
PUEBLO         MOSUNNY   94  42  16 W17G23    29.99F
LA JUNTA       SUNNY     93  54  26 N10       29.97S
LAMAR          SUNNY     91  52  26 N5        29.93F
SPRINGFIELD      N/A     91  50  24 VRB7      29.98F
$$



USA.gov is the U.S. government's official web portal to all federal, state and local government web resources and services.